When you browse on this site, cookies collect data to enhance your experience and personalize the content and advertising you see.
Visit our Privacy Policy to learn more. By continuing to use the site, you agree to this use of cookies and data.
  • In Deutschland
  • Länderverzeichnis
  • Für 7 Tage
  • Wassertemperatur
  • Wetterkarte
  • Widgets
  • user-avatar
    Anmelden

    Stündliche Wetter Sidi Bu-l-Abbas

    Heute, 25 August, Sonntag

    Zeit Temperatur Niederschläge Wind Luftdruck Luftfeuchtigkeit
    00:00 +23°C° 0 mm 1 m/S 721 mmHg 78%
    01:00 +23°C° 0 mm 1 m/S 721 mmHg 79%
    02:00 +22°C° 0 mm 1 m/S 720 mmHg 81%
    03:00 +22°C° 0 mm 1 m/S 720 mmHg 83%
    04:00 +22°C° 0 mm 1 m/S 720 mmHg 84%
    05:00 +19°C° 0 mm 0 m/S 720 mmHg 84%
    06:00 +22°C° 0 mm 1 m/S 720 mmHg 84%
    07:00 +23°C° 0 mm 1 m/S 721 mmHg 73%
    08:00 +25°C° 0 mm 1 m/S 721 mmHg 63%
    09:00 +26°C° 0 mm 2 m/S 721 mmHg 53%
    10:00 +28°C° 0 mm 2 m/S 721 mmHg 45%
    11:00 +30°C° 0 mm 3 m/S 721 mmHg 38%
    12:00 +33°C° 0 mm 3 m/S 721 mmHg 30%
    13:00 +34°C° 0 mm 4 m/S 720 mmHg 30%
    14:00 +34°C° 0 mm 4 m/S 720 mmHg 30%
    15:00 +35°C° 0 mm 5 m/S 720 mmHg 29%
    16:00 +33°C° 0 mm 5 m/S 720 mmHg 37%
    17:00 +32°C° 0 mm 5 m/S 719 mmHg 44%
    18:00 +30°C° 0 mm 5 m/S 719 mmHg 51%
    19:00 +28°C° 0 mm 4 m/S 719 mmHg 57%
    20:00 +27°C° 0 mm 3 m/S 719 mmHg 64%
    21:00 +26°C° 0 mm 2 m/S 720 mmHg 70%
    22:00 +26°C° 0 mm 2 m/S 719 mmHg 70%
    23:00 +26°C° 0 mm 2 m/S 719 mmHg 70%

    Morgen, 26 August, Montag

    Zeit Temperatur Niederschläge Wind Luftdruck Luftfeuchtigkeit
    00:00 +26°C° 0 mm 1 m/S 719 mmHg 70%
    01:00 +25°C° 0 mm 1 m/S 719 mmHg 71%
    02:00 +25°C° 0 mm 1 m/S 719 mmHg 73%
    03:00 +24°C° 0 mm 1 m/S 718 mmHg 75%
    04:00 +25°C° 0 mm 1 m/S 719 mmHg 69%
    05:00 +26°C° 0 mm 1 m/S 719 mmHg 64%
    06:00 +27°C° 0 mm 2 m/S 719 mmHg 58%
    07:00 +28°C° 0 mm 2 m/S 719 mmHg 50%
    08:00 +30°C° 0 mm 2 m/S 719 mmHg 43%
    09:00 +31°C° 0 mm 2 m/S 720 mmHg 36%
    10:00 +34°C° 0 mm 3 m/S 720 mmHg 31%
    11:00 +36°C° 0 mm 3 m/S 719 mmHg 26%
    12:00 +38°C° 0 mm 4 m/S 719 mmHg 21%
    13:00 +38°C° 0 mm 6 m/S 719 mmHg 21%
    14:00 +38°C° 0 mm 8 m/S 718 mmHg 22%
    15:00 +38°C° 0 mm 9 m/S 718 mmHg 22%
    16:00 +34°C° 0.4 mm 11 m/S 718 mmHg 31%
    17:00 +32°C° 0.4 mm 13 m/S 718 mmHg 40%
    18:00 +28°C° 0.4 mm 14 m/S 718 mmHg 49%
    19:00 +28°C° 0.6 mm 13 m/S 719 mmHg 48%
    20:00 +28°C° 0.6 mm 11 m/S 719 mmHg 47%
    21:00 +28°C° 0.6 mm 9 m/S 720 mmHg 45%
    22:00 +28°C° 0 mm 8 m/S 720 mmHg 45%
    23:00 +28°C° 0 mm 6 m/S 720 mmHg 45%

    übermorgen, 27 August, Dienstag

    Zeit Temperatur Niederschläge Wind Luftdruck Luftfeuchtigkeit
    00:00 +29°C° 0 mm 5 m/S 719 mmHg 44%
    01:00 +28°C° 0 mm 4 m/S 719 mmHg 50%
    02:00 +27°C° 0 mm 4 m/S 719 mmHg 55%
    03:00 +26°C° 0 mm 3 m/S 719 mmHg 60%
    04:00 +26°C° 0 mm 3 m/S 719 mmHg 64%
    05:00 +25°C° 0 mm 3 m/S 718 mmHg 68%
    06:00 +25°C° 0 mm 2 m/S 718 mmHg 72%
    07:00 +26°C° 0 mm 3 m/S 719 mmHg 69%
    08:00 +27°C° 0 mm 4 m/S 719 mmHg 65%
    09:00 +28°C° 0 mm 5 m/S 719 mmHg 62%
    10:00 +29°C° 0 mm 6 m/S 719 mmHg 60%
    11:00 +29°C° 0 mm 7 m/S 720 mmHg 57%
    12:00 +30°C° 0 mm 7 m/S 720 mmHg 55%
    13:00 +30°C° 0 mm 7 m/S 720 mmHg 55%
    14:00 +30°C° 0 mm 7 m/S 720 mmHg 56%
    15:00 +30°C° 0 mm 7 m/S 719 mmHg 56%
    16:00 +29°C° 0 mm 6 m/S 720 mmHg 58%
    17:00 +28°C° 0 mm 4 m/S 720 mmHg 61%
    18:00 +27°C° 0 mm 3 m/S 720 mmHg 63%
    19:00 +27°C° 0 mm 3 m/S 720 mmHg 64%
    20:00 +26°C° 0 mm 3 m/S 721 mmHg 64%
    21:00 +26°C° 0 mm 2 m/S 721 mmHg 65%
    22:00 +26°C° 0 mm 2 m/S 721 mmHg 66%
    23:00 +25°C° 0 mm 2 m/S 721 mmHg 67%

    28 August, Mittwoch

    Zeit Temperatur Niederschläge Wind Luftdruck Luftfeuchtigkeit
    00:00 +25°C° 0 mm 1 m/S 721 mmHg 68%
    01:00 +25°C° 0 mm 1 m/S 720 mmHg 70%
    02:00 +24°C° 0 mm 1 m/S 720 mmHg 71%
    03:00 +24°C° 0 mm 1 m/S 720 mmHg 72%
    04:00 +24°C° 0 mm 1 m/S 720 mmHg 73%
    05:00 +24°C° 0 mm 2 m/S 720 mmHg 73%
    06:00 +23°C° 0 mm 2 m/S 720 mmHg 73%
    07:00 +25°C° 0 mm 2 m/S 721 mmHg 62%
    08:00 +27°C° 0 mm 2 m/S 721 mmHg 51%
    09:00 +29°C° 0 mm 3 m/S 721 mmHg 40%
    10:00 +31°C° 0 mm 3 m/S 721 mmHg 35%
    11:00 +33°C° 0 mm 4 m/S 721 mmHg 31%
    12:00 +35°C° 0 mm 4 m/S 721 mmHg 26%
    13:00 +35°C° 0 mm 5 m/S 721 mmHg 26%
    14:00 +36°C° 0 mm 5 m/S 720 mmHg 26%
    15:00 +36°C° 0 mm 6 m/S 720 mmHg 26%
    16:00 +35°C° 0 mm 6 m/S 720 mmHg 31%
    17:00 +33°C° 0 mm 6 m/S 720 mmHg 36%
    18:00 +30°C° 0 mm 6 m/S 719 mmHg 41%
    19:00 +29°C° 0 mm 5 m/S 720 mmHg 43%
    20:00 +28°C° 0 mm 4 m/S 720 mmHg 46%
    21:00 +27°C° 0 mm 3 m/S 721 mmHg 48%
    22:00 +27°C° 0 mm 2 m/S 721 mmHg 49%
    23:00 +27°C° 0 mm 2 m/S 721 mmHg 50%

    29 August, Donnerstag

    Zeit Temperatur Niederschläge Wind Luftdruck Luftfeuchtigkeit
    00:00 +27°C° 0 mm 1 m/S 721 mmHg 50%
    01:00 +26°C° 0 mm 1 m/S 720 mmHg 52%
    02:00 +26°C° 0 mm 1 m/S 720 mmHg 54%
    03:00 +25°C° 0 mm 1 m/S 720 mmHg 56%
    04:00 +25°C° 0 mm 1 m/S 720 mmHg 56%
    05:00 +25°C° 0 mm 1 m/S 720 mmHg 57%
    06:00 +25°C° 0 mm 1 m/S 720 mmHg 58%
    07:00 +27°C° 0 mm 1 m/S 721 mmHg 51%
    08:00 +29°C° 0 mm 2 m/S 721 mmHg 44%
    09:00 +30°C° 0 mm 3 m/S 722 mmHg 37%
    10:00 +33°C° 0 mm 3 m/S 722 mmHg 32%
    11:00 +34°C° 0 mm 3 m/S 722 mmHg 28%
    12:00 +35°C° 0 mm 4 m/S 722 mmHg 24%
    13:00 +35°C° 0.4 mm 4 m/S 722 mmHg 27%
    14:00 +34°C° 0.4 mm 4 m/S 721 mmHg 30%
    15:00 +34°C° 0.4 mm 4 m/S 721 mmHg 32%
    16:00 +33°C° 0.2 mm 4 m/S 721 mmHg 37%
    17:00 +30°C° 0.2 mm 4 m/S 721 mmHg 41%
    18:00 +29°C° 0.2 mm 4 m/S 721 mmHg 46%
    19:00 +29°C° 0.1 mm 3 m/S 721 mmHg 49%
    20:00 +28°C° 0.1 mm 3 m/S 722 mmHg 52%
    21:00 +28°C° 0.1 mm 2 m/S 722 mmHg 55%
    22:00 +28°C° 0.1 mm 2 m/S 722 mmHg 54%
    23:00 +28°C° 0.1 mm 2 m/S 722 mmHg 52%

    30 August, Freitag

    Zeit Temperatur Niederschläge Wind Luftdruck Luftfeuchtigkeit
    00:00 +27°C° 0.1 mm 2 m/S 721 mmHg 51%
    01:00 +27°C° 0.1 mm 2 m/S 721 mmHg 51%
    02:00 +27°C° 0.1 mm 2 m/S 721 mmHg 50%
    03:00 +27°C° 0.1 mm 2 m/S 720 mmHg 49%
    04:00 +26°C° 0 mm 2 m/S 720 mmHg 57%
    05:00 +25°C° 0 mm 2 m/S 720 mmHg 64%
    06:00 +24°C° 0 mm 2 m/S 720 mmHg 71%
    07:00 +25°C° 0 mm 3 m/S 721 mmHg 69%
    08:00 +26°C° 0 mm 3 m/S 721 mmHg 66%
    09:00 +26°C° 0 mm 4 m/S 721 mmHg 63%
    10:00 +27°C° 0.1 mm 5 m/S 721 mmHg 60%
    11:00 +27°C° 0.1 mm 5 m/S 721 mmHg 57%
    12:00 +28°C° 0.1 mm 6 m/S 721 mmHg 54%
    13:00 +27°C° 0.1 mm 6 m/S 721 mmHg 56%
    14:00 +27°C° 0.1 mm 6 m/S 720 mmHg 59%
    15:00 +26°C° 0.1 mm 5 m/S 720 mmHg 62%
    16:00 +26°C° 0 mm 4 m/S 720 mmHg 63%
    17:00 +26°C° 0 mm 4 m/S 720 mmHg 64%
    18:00 +25°C° 0 mm 3 m/S 720 mmHg 64%
    19:00 +25°C° 0 mm 2 m/S 720 mmHg 67%
    20:00 +25°C° 0 mm 1 m/S 720 mmHg 69%
    21:00 +24°C° 0 mm 1 m/S 721 mmHg 71%
    22:00 +24°C° 0 mm 1 m/S 720 mmHg 73%
    23:00 +24°C° 0 mm 1 m/S 720 mmHg 75%
    Mehr zeigen